Location: Clair
(33.8067°N, 117.9845°W)
Time: 08:09:22
(UTC+00:00)

Cosmos 1898 Rocket - Pass Details

Date: 14 February 2026
Orbit: 749 x 779 km, 74.0° (Epoch: 12 March)

Event Time Altitude Azimuth Distance (km) Brightness Sun altitude
Rises 14:06:55 0° 206° (SSW) 3,225 6.6 -7.0°
Reaches altitude 10° 14:09:18 10° 210° (SSW) 2,307 5.8 -6.5°
Maximum altitude 14:14:28 58° 289° (WNW) 903 3.6 -5.4°
Drops below altitude 10° 14:19:41 10° 8° (N) 2,333 6.0 -4.4°
Sets 14:22:08 0° 13° (NNE) 3,265 6.8 -3.9°
